Time,TemperatureF,DewpointF,PressureIn,WindDirection,WindDirectionDegrees,WindSpeedMPH,WindSpeedGustMPH,Humidity,HourlyPrecipIn,Conditions,Clouds,dailyrainin,SoftwareType,DateUTC
2013-07-05 00:00:00,74.8,53.8,30.03,SSW,202,4.0,4.3,48,0.00,,---,0.00,VWS V14.01,2013-07-05 05:00:00,
2013-07-05 00:06:00,74.7,54.8,30.03,SE,135,2.0,5.6,50,0.00,,---,0.00,VWS V14.01,2013-07-05 05:06:00,
2013-07-05 00:11:00,74.7,55.3,30.03,SSE,158,3.8,5.8,51,0.00,,---,0.00,VWS V14.01,2013-07-05 05:11:00,
2013-07-05 00:17:00,74.3,56.1,30.03,SSW,202,2.5,5.4,53,0.00,,---,0.00,VWS V14.01,2013-07-05 05:17:00,
2013-07-05 00:22:00,74.3,56.6,30.03,South,180,5.8,6.3,54,0.00,,---,0.00,VWS V14.01,2013-07-05 05:22:00,
2013-07-05 00:28:00,74.1,56.9,30.03,SSE,158,2.0,6.3,55,0.00,,---,0.00,VWS V14.01,2013-07-05 05:28:00,
2013-07-05 00:33:00,73.9,56.8,30.03,South,180,1.3,3.8,55,0.00,,---,0.00,VWS V14.01,2013-07-05 05:33:00,
2013-07-05 00:38:00,73.9,56.8,30.03,South,180,4.9,5.8,55,0.00,,---,0.00,VWS V14.01,2013-07-05 05:38:00,
2013-07-05 00:43:00,73.8,57.1,30.00,SSE,158,2.0,3.6,56,0.00,,---,0.00,VWS V14.01,2013-07-05 05:43:00,
2013-07-05 00:48:00,73.6,56.9,30.00,SSW,202,2.2,7.6,56,0.00,,---,0.00,VWS V14.01,2013-07-05 05:48:00,
2013-07-05 00:53:00,73.6,56.9,30.00,SSW,202,4.9,6.5,56,0.00,,---,0.00,VWS V14.01,2013-07-05 05:53:00,
2013-07-05 00:58:00,73.6,56.9,30.03,South,180,4.0,4.0,56,0.00,,---,0.00,VWS V14.01,2013-07-05 05:58:00,
2013-07-05 01:03:00,73.6,56.9,30.03,SSE,158,7.4,7.4,56,0.00,,---,0.00,VWS V14.01,2013-07-05 06:03:00,
2013-07-05 01:08:00,73.6,56.9,30.03,SSE,158,1.6,4.3,56,0.00,,---,0.00,VWS V14.01,2013-07-05 06:08:00,
2013-07-05 01:13:00,73.4,56.8,30.03,SSW,202,1.1,4.0,56,0.00,,---,0.00,VWS V14.01,2013-07-05 06:13:00,
2013-07-05 01:18:00,73.4,56.8,30.03,SSW,202,2.7,4.5,56,0.00,,---,0.00,VWS V14.01,2013-07-05 06:18:00,
2013-07-05 01:23:00,73.4,56.8,30.03,SSW,202,3.1,6.0,56,0.00,,---,0.00,VWS V14.01,2013-07-05 06:23:00,
2013-07-05 01:28:00,73.4,56.8,30.03,SSE,158,8.5,8.5,56,0.00,,---,0.00,VWS V14.01,2013-07-05 06:28:00,
2013-07-05 01:33:00,73.2,56.6,30.03,South,180,8.1,8.1,56,0.00,,---,0.00,VWS V14.01,2013-07-05 06:33:00,
2013-07-05 01:38:00,73.0,56.4,30.03,South,180,4.9,5.8,56,0.00,,---,0.00,VWS V14.01,2013-07-05 06:38:00,
2013-07-05 01:43:00,73.0,56.4,30.03,SSW,202,6.0,6.0,56,0.00,,---,0.00,VWS V14.01,2013-07-05 06:43:00,
2013-07-05 01:48:00,72.9,56.3,30.03,SSW,202,3.6,5.8,56,0.00,,---,0.00,VWS V14.01,2013-07-05 06:48:00,
2013-07-05 01:53:00,72.9,56.3,30.03,SSW,202,3.1,5.6,56,0.00,,---,0.00,VWS V14.01,2013-07-05 06:53:00,
2013-07-05 01:58:00,72.7,56.6,30.03,South,180,1.3,4.0,57,0.00,,---,0.00,VWS V14.01,2013-07-05 06:58:00,
2013-07-05 02:03:00,72.5,56.4,30.03,SE,135,1.6,4.3,57,0.00,,---,0.00,VWS V14.01,2013-07-05 07:03:00,
2013-07-05 02:08:00,72.3,56.2,30.03,SSW,202,7.8,12.3,57,0.00,,---,0.00,VWS V14.01,2013-07-05 07:08:00,
2013-07-05 02:13:00,72.1,56.1,30.03,SSW,202,8.1,8.1,57,0.00,,---,0.00,VWS V14.01,2013-07-05 07:13:00,
2013-07-05 02:18:00,72.0,56.4,30.03,SE,135,2.5,5.4,58,0.00,,---,0.00,VWS V14.01,2013-07-05 07:18:00,
2013-07-05 02:23:00,71.8,56.2,30.03,South,180,4.3,8.7,58,0.00,,---,0.00,VWS V14.01,2013-07-05 07:23:00,
2013-07-05 02:28:00,71.8,56.2,30.03,SSW,202,2.9,4.0,58,0.00,,---,0.00,VWS V14.01,2013-07-05 07:28:00,
2013-07-05 02:33:00,71.8,56.2,30.03,South,180,4.7,6.3,58,0.00,,---,0.00,VWS V14.01,2013-07-05 07:33:00,
2013-07-05 02:38:00,71.8,56.2,30.03,SSE,158,3.8,6.0,58,0.00,,---,0.00,VWS V14.01,2013-07-05 07:38:00,
2013-07-05 02:43:00,71.6,56.5,30.03,SSW,202,2.9,6.5,59,0.00,,---,0.00,VWS V14.01,2013-07-05 07:43:00,
2013-07-05 02:48:00,71.4,56.8,30.03,SSW,202,5.4,7.2,60,0.00,,---,0.00,VWS V14.01,2013-07-05 07:48:00,
2013-07-05 02:53:00,71.4,56.8,30.03,SSW,202,4.0,5.4,60,0.00,,---,0.00,VWS V14.01,2013-07-05 07:53:00,
2013-07-05 02:59:00,71.2,56.7,30.03,SSW,202,2.9,4.0,60,0.00,,---,0.00,VWS V14.01,2013-07-05 07:59:00,
2013-07-05 03:05:00,71.1,56.5,30.03,SSE,158,2.0,5.6,60,0.00,,---,0.00,VWS V14.01,2013-07-05 08:05:00,
2013-07-05 03:10:00,71.1,56.5,30.03,SSE,158,3.4,4.9,60,0.00,,---,0.00,VWS V14.01,2013-07-05 08:10:00,
2013-07-05 03:16:00,71.1,57.0,30.03,South,180,3.8,3.8,61,0.00,,---,0.00,VWS V14.01,2013-07-05 08:16:00,
2013-07-05 03:21:00,71.1,57.0,30.03,SSW,202,2.5,4.5,61,0.00,,---,0.00,VWS V14.01,2013-07-05 08:21:00,
2013-07-05 03:26:00,70.9,56.8,30.03,SSW,202,3.1,8.5,61,0.00,,---,0.00,VWS V14.01,2013-07-05 08:26:00,
2013-07-05 03:31:00,71.1,57.0,30.03,South,180,2.9,5.6,61,0.00,,---,0.00,VWS V14.01,2013-07-05 08:31:00,
2013-07-05 03:36:00,70.9,56.8,30.03,SSW,202,3.4,4.7,61,0.00,,---,0.00,VWS V14.01,2013-07-05 08:36:00,
2013-07-05 03:41:00,70.9,57.2,30.03,SSE,158,3.4,3.8,62,0.00,,---,0.00,VWS V14.01,2013-07-05 08:41:00,
2013-07-05 03:46:00,70.7,57.1,30.03,SSW,202,4.0,4.9,62,0.00,,---,0.00,VWS V14.01,2013-07-05 08:46:00,
2013-07-05 03:51:00,70.7,57.5,30.03,South,180,1.6,5.6,63,0.00,,---,0.00,VWS V14.01,2013-07-05 08:51:00,
2013-07-05 03:56:00,70.5,57.3,30.03,SSE,158,2.7,6.0,63,0.00,,---,0.00,VWS V14.01,2013-07-05 08:56:00,
2013-07-05 04:01:00,70.3,57.2,30.03,SSW,202,3.8,3.8,63,0.00,,---,0.00,VWS V14.01,2013-07-05 09:01:00,
2013-07-05 04:06:00,70.2,57.4,30.03,South,180,1.6,4.0,64,0.00,,---,0.00,VWS V14.01,2013-07-05 09:06:00,
2013-07-05 04:11:00,70.0,57.3,30.03,SSW,202,2.9,2.9,64,0.00,,---,0.00,VWS V14.01,2013-07-05 09:11:00,
2013-07-05 04:16:00,70.0,57.7,30.03,South,180,2.0,4.0,65,0.00,,---,0.00,VWS V14.01,2013-07-05 09:16:00,
2013-07-05 04:21:00,70.0,57.7,30.03,SSW,202,1.3,3.4,65,0.00,,---,0.00,VWS V14.01,2013-07-05 09:21:00,
2013-07-05 04:26:00,69.8,57.5,30.03,South,180,1.6,3.1,65,0.00,,---,0.00,VWS V14.01,2013-07-05 09:26:00,
2013-07-05 04:32:00,69.8,57.9,30.03,South,180,2.0,3.6,66,0.00,,---,0.00,VWS V14.01,2013-07-05 09:32:00,
2013-07-05 04:37:00,69.6,57.8,30.03,SSE,158,3.6,3.6,66,0.00,,---,0.00,VWS V14.01,2013-07-05 09:37:00,
2013-07-05 04:42:00,69.4,58.0,30.03,SE,135,0.0,2.9,67,0.00,,---,0.00,VWS V14.01,2013-07-05 09:42:00,
2013-07-05 04:47:00,69.3,57.8,30.03,South,180,4.3,6.3,67,0.00,,---,0.00,VWS V14.01,2013-07-05 09:47:00,
2013-07-05 04:53:00,69.3,58.3,30.03,SSE,158,2.7,3.8,68,0.00,,---,0.00,VWS V14.01,2013-07-05 09:53:00,
2013-07-05 04:58:00,69.3,58.3,30.03,SSW,202,3.1,5.4,68,0.00,,---,0.00,VWS V14.01,2013-07-05 09:58:00,
2013-07-05 05:04:00,69.1,58.1,30.03,SSW,202,3.6,3.6,68,0.00,,---,0.00,VWS V14.01,2013-07-05 10:04:00,
2013-07-05 05:09:00,68.9,57.9,30.03,SE,135,6.5,6.5,68,0.00,,---,0.00,VWS V14.01,2013-07-05 10:09:00,
2013-07-05 05:14:00,68.9,58.3,30.03,SSW,202,2.2,2.2,69,0.00,,---,0.00,VWS V14.01,2013-07-05 10:14:00,
2013-07-05 05:19:00,68.7,58.2,30.03,SE,135,1.1,2.9,69,0.00,,---,0.00,VWS V14.01,2013-07-05 10:19:00,
2013-07-05 05:25:00,68.5,58.0,30.03,SSE,158,2.5,2.9,69,0.00,,---,0.00,VWS V14.01,2013-07-05 10:25:00,
2013-07-05 05:31:00,68.4,58.2,30.03,South,180,2.5,2.5,70,0.00,,---,0.00,VWS V14.01,2013-07-05 10:31:00,
2013-07-05 05:36:00,68.2,58.0,30.03,South,180,1.3,1.3,70,0.00,,---,0.00,VWS V14.01,2013-07-05 10:36:00,
2013-07-05 05:41:00,68.2,58.4,30.03,South,180,2.0,4.0,71,0.00,,---,0.00,VWS V14.01,2013-07-05 10:41:00,
2013-07-05 05:47:00,67.8,58.1,30.03,SW,225,5.8,5.8,71,0.00,,---,0.00,VWS V14.01,2013-07-05 10:47:00,
2013-07-05 05:52:00,67.6,58.3,30.03,SSE,158,3.8,3.8,72,0.00,,---,0.00,VWS V14.01,2013-07-05 10:52:00,
2013-07-05 05:57:00,67.5,58.1,30.03,SSE,158,0.0,0.0,72,0.00,,---,0.00,VWS V14.01,2013-07-05 10:57:00,
2013-07-05 06:02:00,67.3,58.0,30.03,South,180,0.0,1.6,72,0.00,,---,0.00,VWS V14.01,2013-07-05 11:02:00,
2013-07-05 06:07:00,67.1,58.5,30.03,South,180,2.9,2.9,74,0.00,,---,0.00,VWS V14.01,2013-07-05 11:07:00,
2013-07-05 06:12:00,66.9,58.4,30.00,SSW,202,2.9,2.9,74,0.00,,---,0.00,VWS V14.01,2013-07-05 11:12:00,
2013-07-05 06:17:00,66.7,58.2,30.00,South,180,1.3,2.5,74,0.00,,---,0.00,VWS V14.01,2013-07-05 11:17:00,
2013-07-05 06:22:00,66.6,58.4,30.00,South,180,0.0,1.1,75,0.00,,---,0.00,VWS V14.01,2013-07-05 11:22:00,
2013-07-05 06:28:00,66.4,58.6,30.00,SSE,158,2.9,2.9,76,0.00,,---,0.00,VWS V14.01,2013-07-05 11:28:00,
2013-07-05 06:33:00,66.4,58.6,30.00,SSW,202,0.0,1.1,76,0.00,,---,0.00,VWS V14.01,2013-07-05 11:33:00,
2013-07-05 06:38:00,66.2,58.4,30.00,South,180,0.9,0.9,76,0.00,,---,0.00,VWS V14.01,2013-07-05 11:38:00,
2013-07-05 06:43:00,66.2,59.2,30.03,SSW,202,0.0,2.5,78,0.00,,---,0.00,VWS V14.01,2013-07-05 11:43:00,
2013-07-05 06:48:00,66.2,58.8,30.03,SSW,202,0.0,0.0,77,0.00,,---,0.00,VWS V14.01,2013-07-05 11:48:00,
2013-07-05 06:53:00,66.4,59.3,30.03,SSW,202,0.0,2.2,78,0.00,,---,0.00,VWS V14.01,2013-07-05 11:53:00,
2013-07-05 06:59:00,66.6,59.5,30.03,South,180,2.9,2.9,78,0.00,,---,0.00,VWS V14.01,2013-07-05 11:59:00,
2013-07-05 07:05:00,66.7,59.7,30.03,SSE,158,2.5,2.5,78,0.00,,---,0.00,VWS V14.01,2013-07-05 12:05:00,
2013-07-05 07:11:00,66.9,59.5,30.03,South,180,0.0,0.0,77,0.00,,---,0.00,VWS V14.01,2013-07-05 12:11:00,
2013-07-05 07:16:00,67.1,59.7,30.03,SSE,158,0.0,0.0,77,0.00,,---,0.00,VWS V14.01,2013-07-05 12:16:00,
2013-07-05 07:22:00,67.5,60.0,30.03,SSW,202,0.0,4.3,77,0.00,,---,0.00,VWS V14.01,2013-07-05 12:22:00,
2013-07-05 07:27:00,67.6,60.2,30.03,South,180,2.5,2.5,77,0.00,,---,0.00,VWS V14.01,2013-07-05 12:27:00,
2013-07-05 07:32:00,68.0,60.2,30.03,South,180,0.0,0.9,76,0.00,,---,0.00,VWS V14.01,2013-07-05 12:32:00,
2013-07-05 07:43:00,68.9,60.3,30.06,South,180,0.0,3.8,74,0.00,,---,0.00,VWS V14.01,2013-07-05 12:43:00,
2013-07-05 07:49:00,69.1,60.1,30.06,SE,135,1.6,3.1,73,0.00,,---,0.00,VWS V14.01,2013-07-05 12:49:00,
2013-07-05 07:54:00,69.3,59.9,30.06,SE,135,2.5,2.5,72,0.00,,---,0.00,VWS V14.01,2013-07-05 12:54:00,
2013-07-05 07:59:00,69.3,59.9,30.03,SE,135,1.3,2.9,72,0.00,,---,0.00,VWS V14.01,2013-07-05 12:59:00,
2013-07-05 08:05:00,69.4,60.0,30.03,SE,135,0.0,2.2,72,0.00,,---,0.00,VWS V14.01,2013-07-05 13:05:00,
2013-07-05 08:11:00,69.6,60.2,30.06,South,180,1.6,2.9,72,0.00,,---,0.00,VWS V14.01,2013-07-05 13:11:00,
2013-07-05 08:17:00,70.2,60.3,30.06,SSE,158,4.0,4.0,71,0.00,,---,0.00,VWS V14.01,2013-07-05 13:17:00,
2013-07-05 08:23:00,70.7,60.0,30.06,South,180,0.0,1.6,69,0.00,,---,0.00,VWS V14.01,2013-07-05 13:23:00,
2013-07-05 08:28:00,71.2,60.6,30.03,SSW,202,1.6,4.7,69,0.00,,---,0.00,VWS V14.01,2013-07-05 13:28:00,
2013-07-05 08:34:00,71.6,60.9,30.03,SE,135,0.0,2.7,69,0.00,,---,0.00,VWS V14.01,2013-07-05 13:34:00,
2013-07-05 08:40:00,72.3,60.8,30.03,SSW,202,3.8,3.8,67,0.00,,---,0.00,VWS V14.01,2013-07-05 13:40:00,
2013-07-05 08:45:00,72.5,60.5,30.03,SE,135,1.1,2.0,66,0.00,,---,0.00,VWS V14.01,2013-07-05 13:45:00,
2013-07-05 08:51:00,72.7,60.7,30.03,SSE,158,1.6,1.6,66,0.00,,---,0.00,VWS V14.01,2013-07-05 13:51:00,
2013-07-05 08:56:00,72.9,60.4,30.03,ESE,112,3.4,3.4,65,0.00,,---,0.00,VWS V14.01,2013-07-05 13:56:00,
2013-07-05 09:01:00,72.9,60.4,30.03,East,90,1.3,4.3,65,0.00,,---,0.00,VWS V14.01,2013-07-05 14:01:00,
2013-07-05 09:07:00,73.0,60.6,30.03,SE,135,4.9,6.5,65,0.00,,---,0.00,VWS V14.01,2013-07-05 14:07:00,
2013-07-05 09:13:00,73.0,60.6,30.03,SE,135,0.0,6.3,65,0.00,,---,0.00,VWS V14.01,2013-07-05 14:13:00,
2013-07-05 09:18:00,73.4,60.5,30.03,South,180,1.3,4.5,64,0.00,,---,0.00,VWS V14.01,2013-07-05 14:18:00,
2013-07-05 09:24:00,73.8,60.8,30.03,SE,135,2.2,3.8,64,0.00,,---,0.00,VWS V14.01,2013-07-05 14:24:00,
2013-07-05 09:29:00,73.9,60.6,30.03,ESE,112,2.0,3.1,63,0.00,,---,0.00,VWS V14.01,2013-07-05 14:29:00,
2013-07-05 09:34:00,74.1,60.7,30.03,ESE,112,4.7,5.4,63,0.00,,---,0.00,VWS V14.01,2013-07-05 14:34:00,
2013-07-05 09:40:00,74.3,60.9,30.03,SSW,202,0.9,4.9,63,0.00,,---,0.00,VWS V14.01,2013-07-05 14:40:00,
2013-07-05 09:46:00,74.7,61.2,30.03,SE,135,0.9,4.3,63,0.00,,---,0.00,VWS V14.01,2013-07-05 14:46:00,
2013-07-05 09:51:00,75.0,61.6,30.03,East,90,3.1,3.1,63,0.00,,---,0.00,VWS V14.01,2013-07-05 14:51:00,
2013-07-05 09:56:00,75.4,61.5,30.03,South,180,1.1,1.1,62,0.00,,---,0.00,VWS V14.01,2013-07-05 14:56:00,
2013-07-05 10:01:00,75.7,61.3,30.03,South,180,0.0,3.4,61,0.00,,---,0.00,VWS V14.01,2013-07-05 15:01:00,
2013-07-05 10:06:00,76.1,61.2,30.03,SSE,158,0.9,3.1,60,0.00,,---,0.00,VWS V14.01,2013-07-05 15:06:00,
2013-07-05 10:11:00,76.5,61.1,30.03,SSE,158,2.9,4.3,59,0.00,,---,0.00,VWS V14.01,2013-07-05 15:11:00,
2013-07-05 10:16:00,76.8,60.5,30.03,SE,135,2.9,4.9,57,0.00,,---,0.00,VWS V14.01,2013-07-05 15:16:00,
2013-07-05 10:21:00,77.0,59.6,30.03,South,180,2.0,7.2,55,0.00,,---,0.00,VWS V14.01,2013-07-05 15:21:00,
2013-07-05 10:26:00,77.7,60.3,30.03,East,90,1.1,6.5,55,0.00,,---,0.00,VWS V14.01,2013-07-05 15:26:00,
2013-07-05 10:31:00,79.3,61.3,30.03,SSW,202,1.1,7.4,54,0.00,,---,0.00,VWS V14.01,2013-07-05 15:31:00,
2013-07-05 10:36:00,79.2,59.5,30.03,South,180,6.0,6.0,51,0.00,,---,0.00,VWS V14.01,2013-07-05 15:36:00,
2013-07-05 10:41:00,79.3,58.5,30.03,SSE,158,4.3,4.3,49,0.00,,---,0.00,VWS V14.01,2013-07-05 15:41:00,
2013-07-05 10:46:00,79.3,56.2,30.03,SE,135,9.8,12.8,45,0.00,,---,0.00,VWS V14.01,2013-07-05 15:46:00,
2013-07-05 10:51:00,80.6,57.3,30.03,SSW,202,5.6,5.6,45,0.00,,---,0.00,VWS V14.01,2013-07-05 15:51:00,
2013-07-05 10:53:00,81.0,57.0,30.03,South,180,3.4,10.7,44,0.00,,---,0.00,VWS V14.01,2013-07-05 15:53:00,
2013-07-05 10:58:00,81.3,56.7,30.03,SSW,202,5.8,10.1,43,0.00,,---,0.00,VWS V14.01,2013-07-05 15:58:00,
2013-07-05 11:03:00,83.1,57.0,30.03,SE,135,6.3,10.5,41,0.00,,---,0.00,VWS V14.01,2013-07-05 16:03:00,
2013-07-05 11:08:00,84.6,58.3,30.03,South,180,7.6,8.7,41,0.00,,---,0.00,VWS V14.01,2013-07-05 16:08:00,
2013-07-05 11:13:00,85.1,58.1,30.03,ESE,112,6.3,14.8,40,0.00,,---,0.00,VWS V14.01,2013-07-05 16:13:00,
2013-07-05 11:18:00,85.3,57.5,30.03,South,180,7.2,10.3,39,0.00,,---,0.00,VWS V14.01,2013-07-05 16:18:00,
2013-07-05 11:23:00,85.6,57.9,30.03,SSW,202,8.5,12.3,39,0.00,,---,0.00,VWS V14.01,2013-07-05 16:23:00,
2013-07-05 11:28:00,84.9,56.5,30.03,SSW,202,8.7,9.8,38,0.00,,---,0.00,VWS V14.01,2013-07-05 16:28:00,
2013-07-05 11:33:00,85.6,57.1,30.03,SSW,202,11.0,13.9,38,0.00,,---,0.00,VWS V14.01,2013-07-05 16:33:00,
2013-07-05 11:38:00,86.2,56.9,30.03,South,180,8.5,8.5,37,0.00,,---,0.00,VWS V14.01,2013-07-05 16:38:00,
2013-07-05 11:43:00,86.9,57.5,30.03,South,180,7.8,9.8,37,0.00,,---,0.00,VWS V14.01,2013-07-05 16:43:00,
2013-07-05 11:48:00,86.9,56.8,30.03,SSW,202,8.7,12.8,36,0.00,,---,0.00,VWS V14.01,2013-07-05 16:48:00,
2013-07-05 11:53:00,87.1,56.1,30.03,SSE,158,7.8,9.8,35,0.00,,---,0.00,VWS V14.01,2013-07-05 16:53:00,
2013-07-05 11:58:00,87.4,56.5,30.03,SSW,202,16.1,16.1,35,0.00,,---,0.00,VWS V14.01,2013-07-05 16:58:00,
2013-07-05 12:03:00,88.2,57.1,30.03,SSW,202,10.5,12.8,35,0.00,,---,0.00,VWS V14.01,2013-07-05 17:03:00,
2013-07-05 12:08:00,87.6,55.8,30.03,SSE,158,7.2,14.1,34,0.00,,---,0.00,VWS V14.01,2013-07-05 17:08:00,
2013-07-05 12:13:00,87.6,55.8,30.03,SSW,202,3.8,10.5,34,0.00,,---,0.00,VWS V14.01,2013-07-05 17:13:00,
2013-07-05 12:18:00,87.6,55.8,30.03,SSE,158,7.4,7.6,34,0.00,,---,0.00,VWS V14.01,2013-07-05 17:18:00,
2013-07-05 12:23:00,87.6,55.8,30.03,SSW,202,6.3,15.2,34,0.00,,---,0.00,VWS V14.01,2013-07-05 17:23:00,
2013-07-05 12:27:00,87.6,55.8,30.03,South,180,12.5,12.5,34,0.00,,---,0.00,VWS V14.01,2013-07-05 17:27:00,
2013-07-05 12:32:00,87.6,55.8,30.03,SSW,202,7.8,13.6,34,0.00,,---,0.00,VWS V14.01,2013-07-05 17:32:00,
2013-07-05 12:37:00,90.1,55.5,30.03,WSW,248,16.1,16.1,31,0.00,,---,0.00,VWS V14.01,2013-07-05 17:37:00,
2013-07-05 12:42:00,90.1,55.5,30.03,SE,135,3.6,5.8,31,0.00,,---,0.00,VWS V14.01,2013-07-05 17:42:00,
2013-07-05 12:47:00,91.4,55.6,30.03,South,180,8.5,8.5,30,0.00,,---,0.00,VWS V14.01,2013-07-05 17:47:00,
2013-07-05 12:52:00,91.8,56.0,30.03,SSW,202,6.5,10.3,30,0.00,,---,0.00,VWS V14.01,2013-07-05 17:52:00,
2013-07-05 12:57:00,90.9,55.2,30.03,SSE,158,6.3,13.0,30,0.00,,---,0.00,VWS V14.01,2013-07-05 17:57:00,
2013-07-05 13:02:00,90.3,54.7,30.03,SW,225,5.8,11.0,30,0.00,,---,0.00,VWS V14.01,2013-07-05 18:02:00,
2013-07-05 13:07:00,90.9,55.2,30.03,SSW,202,8.5,14.5,30,0.00,,---,0.00,VWS V14.01,2013-07-05 18:07:00,
2013-07-05 13:12:00,90.5,54.9,30.00,SW,225,9.4,15.4,30,0.00,,---,0.00,VWS V14.01,2013-07-05 18:12:00,
2013-07-05 13:17:00,90.3,54.7,30.00,SSW,202,17.7,17.7,30,0.00,,---,0.00,VWS V14.01,2013-07-05 18:17:00,
2013-07-05 13:22:00,90.3,54.7,30.00,SSE,158,15.2,16.6,30,0.00,,---,0.00,VWS V14.01,2013-07-05 18:22:00,
2013-07-05 13:27:00,90.1,54.5,30.00,SSE,158,6.5,11.0,30,0.00,,---,0.00,VWS V14.01,2013-07-05 18:27:00,
2013-07-05 13:32:00,90.5,54.9,30.00,SE,135,8.7,8.7,30,0.00,,---,0.00,VWS V14.01,2013-07-05 18:32:00,
2013-07-05 13:37:00,90.7,55.0,30.00,SSE,158,6.9,13.2,30,0.00,,---,0.00,VWS V14.01,2013-07-05 18:37:00,
2013-07-05 13:42:00,91.2,54.5,30.00,SSW,202,8.5,14.1,29,0.00,,---,0.00,VWS V14.01,2013-07-05 18:42:00,
2013-07-05 13:47:00,91.0,54.4,30.00,SSW,202,8.5,13.0,29,0.00,,---,0.00,VWS V14.01,2013-07-05 18:47:00,
2013-07-05 13:52:00,91.8,55.0,30.00,SW,225,3.4,8.7,29,0.00,,---,0.00,VWS V14.01,2013-07-05 18:52:00,
2013-07-05 13:57:00,92.3,55.5,30.00,SW,225,3.8,12.3,29,0.00,,---,0.00,VWS V14.01,2013-07-05 18:57:00,
2013-07-05 14:02:00,91.9,55.2,30.00,SW,225,9.8,14.8,29,0.00,,---,0.00,VWS V14.01,2013-07-05 19:02:00,
2013-07-05 14:08:00,91.4,54.7,30.00,SSW,202,8.5,16.6,29,0.00,,---,0.00,VWS V14.01,2013-07-05 19:08:00,
2013-07-05 14:13:00,91.8,55.0,30.00,SW,225,4.7,13.6,29,0.00,,---,0.00,VWS V14.01,2013-07-05 19:13:00,
2013-07-05 14:16:00,92.3,55.5,30.00,South,180,8.7,12.1,29,0.00,,---,0.00,VWS V14.01,2013-07-05 19:16:00,
2013-07-05 14:21:00,92.7,55.8,30.00,SSW,202,3.8,6.5,29,0.00,,---,0.00,VWS V14.01,2013-07-05 19:21:00,
2013-07-05 14:23:00,92.5,55.6,30.00,SSE,158,7.6,9.8,29,0.00,,---,0.00,VWS V14.01,2013-07-05 19:23:00,
2013-07-05 14:28:00,92.1,55.3,30.00,South,180,14.5,14.5,29,0.00,,---,0.00,VWS V14.01,2013-07-05 19:28:00,
2013-07-05 14:33:00,91.9,55.2,30.00,WSW,248,5.6,9.8,29,0.00,,---,0.00,VWS V14.01,2013-07-05 19:33:00,
2013-07-05 14:38:00,92.3,55.5,30.00,SSE,158,2.5,11.0,29,0.00,,---,0.00,VWS V14.01,2013-07-05 19:38:00,
2013-07-05 14:43:00,92.8,55.9,30.00,South,180,7.8,10.5,29,0.00,,---,0.00,VWS V14.01,2013-07-05 19:43:00,
2013-07-05 14:48:00,92.5,54.7,30.00,SSW,202,6.3,13.6,28,0.00,,---,0.00,VWS V14.01,2013-07-05 19:48:00,
2013-07-05 14:53:00,92.3,55.5,30.00,SSW,202,8.5,13.2,29,0.00,,---,0.00,VWS V14.01,2013-07-05 19:53:00,
2013-07-05 14:58:00,92.1,54.4,30.00,SSW,202,10.3,14.8,28,0.00,,---,0.00,VWS V14.01,2013-07-05 19:58:00,
2013-07-05 15:03:00,92.5,54.7,30.00,SSW,202,6.3,9.8,28,0.00,,---,0.00,VWS V14.01,2013-07-05 20:03:00,
2013-07-05 15:08:00,92.8,55.0,30.00,SSW,202,8.5,9.2,28,0.00,,---,0.00,VWS V14.01,2013-07-05 20:08:00,
2013-07-05 15:13:00,93.0,55.1,29.97,SSE,158,1.3,11.0,28,0.00,,---,0.00,VWS V14.01,2013-07-05 20:13:00,
2013-07-05 15:18:00,93.0,55.1,29.97,SSW,202,12.5,12.5,28,0.00,,---,0.00,VWS V14.01,2013-07-05 20:18:00,
2013-07-05 15:20:00,93.0,55.1,29.97,SSW,202,4.3,6.3,28,0.00,,---,0.00,VWS V14.01,2013-07-05 20:20:00,
2013-07-05 15:25:00,92.3,54.5,29.97,SSW,202,12.1,12.5,28,0.00,,---,0.00,VWS V14.01,2013-07-05 20:25:00,
2013-07-05 15:30:00,93.9,55.9,29.97,SW,225,1.3,5.4,28,0.00,,---,0.00,VWS V14.01,2013-07-05 20:30:00,
2013-07-05 15:36:00,93.4,55.4,29.97,SSW,202,5.8,10.1,28,0.00,,---,0.00,VWS V14.01,2013-07-05 20:36:00,
2013-07-05 15:41:00,93.2,55.3,29.97,South,180,6.0,14.3,28,0.00,,---,0.00,VWS V14.01,2013-07-05 20:41:00,
2013-07-05 15:46:00,94.3,56.2,29.97,SSE,158,7.6,7.6,28,0.00,,---,0.00,VWS V14.01,2013-07-05 20:46:00,
2013-07-05 15:51:00,93.7,54.7,29.97,SE,135,6.5,14.5,27,0.00,,---,0.00,VWS V14.01,2013-07-05 20:51:00,
2013-07-05 15:56:00,93.4,55.4,29.94,South,180,3.4,8.7,28,0.00,,---,0.00,VWS V14.01,2013-07-05 20:56:00,
2013-07-05 16:01:00,94.3,55.2,29.94,South,180,10.1,10.1,27,0.00,,---,0.00,VWS V14.01,2013-07-05 21:01:00,
2013-07-05 16:02:00,94.3,55.2,29.94,SSW,202,7.8,13.4,27,0.00,,---,0.00,VWS V14.01,2013-07-05 21:02:00,
2013-07-05 16:07:00,93.9,55.9,29.94,SSW,202,5.8,16.8,28,0.00,,---,0.00,VWS V14.01,2013-07-05 21:07:00,
2013-07-05 16:12:00,93.7,55.7,29.94,SSW,202,5.6,12.8,28,0.00,,---,0.00,VWS V14.01,2013-07-05 21:12:00,
2013-07-05 16:17:00,94.1,56.0,29.94,SW,225,10.7,10.7,28,0.00,,---,0.00,VWS V14.01,2013-07-05 21:17:00,
2013-07-05 16:22:00,93.7,55.7,29.94,SSE,158,6.0,14.5,28,0.00,,---,0.00,VWS V14.01,2013-07-05 21:22:00,
2013-07-05 16:27:00,94.3,56.2,29.97,SW,225,1.1,7.8,28,0.00,,---,0.00,VWS V14.01,2013-07-05 21:27:00,
2013-07-05 16:32:00,94.8,56.7,29.97,SSW,202,3.6,6.0,28,0.00,,---,0.00,VWS V14.01,2013-07-05 21:32:00,
2013-07-05 16:37:00,94.3,55.2,29.97,South,180,10.5,10.5,27,0.00,,---,0.00,VWS V14.01,2013-07-05 21:37:00,
2013-07-05 16:42:00,94.5,56.4,29.97,SSE,158,4.3,5.6,28,0.00,,---,0.00,VWS V14.01,2013-07-05 21:42:00,
2013-07-05 16:47:00,94.1,55.0,29.97,SW,225,3.6,13.0,27,0.00,,---,0.00,VWS V14.01,2013-07-05 21:47:00,
2013-07-05 16:52:00,93.6,54.6,29.97,East,90,6.3,15.2,27,0.00,,---,0.00,VWS V14.01,2013-07-05 21:52:00,
2013-07-05 16:57:00,93.2,54.3,29.97,SSW,202,5.6,10.1,27,0.00,,---,0.00,VWS V14.01,2013-07-05 21:57:00,
2013-07-05 16:59:00,93.9,54.9,29.97,South,180,7.6,7.6,27,0.00,,---,0.00,VWS V14.01,2013-07-05 21:59:00,
2013-07-05 17:04:00,94.1,55.0,29.97,SSW,202,6.3,6.3,27,0.00,,---,0.00,VWS V14.01,2013-07-05 22:04:00,
2013-07-05 17:09:00,93.9,54.9,29.97,South,180,5.6,7.2,27,0.00,,---,0.00,VWS V14.01,2013-07-05 22:09:00,
2013-07-05 17:14:00,93.9,55.9,29.97,SW,225,5.6,5.6,28,0.00,,---,0.00,VWS V14.01,2013-07-05 22:14:00,
2013-07-05 17:19:00,93.9,54.9,29.97,SSW,202,7.8,9.2,27,0.00,,---,0.00,VWS V14.01,2013-07-05 22:19:00,
2013-07-05 17:24:00,93.7,54.7,29.97,SSE,158,10.1,10.1,27,0.00,,---,0.00,VWS V14.01,2013-07-05 22:24:00,
2013-07-05 17:29:00,93.7,54.7,29.94,South,180,6.3,8.7,27,0.00,,---,0.00,VWS V14.01,2013-07-05 22:29:00,
2013-07-05 17:34:00,93.6,54.6,29.94,WSW,248,3.6,7.4,27,0.00,,---,0.00,VWS V14.01,2013-07-05 22:34:00,
2013-07-05 17:39:00,93.4,54.4,29.94,SSW,202,4.9,12.8,27,0.00,,---,0.00,VWS V14.01,2013-07-05 22:39:00,
2013-07-05 17:44:00,93.4,54.4,29.94,SSE,158,6.0,10.3,27,0.00,,---,0.00,VWS V14.01,2013-07-05 22:44:00,
2013-07-05 17:46:00,93.2,54.3,29.94,SW,225,7.2,8.5,27,0.00,,---,0.00,VWS V14.01,2013-07-05 22:46:00,
2013-07-05 17:51:00,93.4,54.4,29.94,South,180,6.5,9.6,27,0.00,,---,0.00,VWS V14.01,2013-07-05 22:51:00,
2013-07-05 17:56:00,93.9,54.9,29.94,SSW,202,6.5,7.6,27,0.00,,---,0.00,VWS V14.01,2013-07-05 22:56:00,
2013-07-05 18:01:00,93.7,55.7,29.94,SSW,202,6.3,8.7,28,0.00,,---,0.00,VWS V14.01,2013-07-05 23:01:00,
2013-07-05 18:06:00,93.6,55.6,29.94,SSE,158,6.0,6.5,28,0.00,,---,0.00,VWS V14.01,2013-07-05 23:06:00,
2013-07-05 18:12:00,94.1,56.0,29.94,South,180,1.3,9.6,28,0.00,,---,0.00,VWS V14.01,2013-07-05 23:12:00,
2013-07-05 18:17:00,93.7,55.7,29.94,SSW,202,3.6,7.4,28,0.00,,---,0.00,VWS V14.01,2013-07-05 23:17:00,
2013-07-05 18:22:00,93.0,55.1,29.94,SE,135,2.5,7.2,28,0.00,,---,0.00,VWS V14.01,2013-07-05 23:22:00,
2013-07-05 18:28:00,92.5,54.7,29.91,SE,135,10.5,10.5,28,0.00,,---,0.00,VWS V14.01,2013-07-05 23:28:00,
2013-07-05 18:33:00,92.3,54.5,29.91,SSW,202,7.2,12.1,28,0.00,,---,0.00,VWS V14.01,2013-07-05 23:33:00,
2013-07-05 18:39:00,91.9,54.2,29.91,SSW,202,10.3,10.3,28,0.00,,---,0.00,VWS V14.01,2013-07-05 23:39:00,
2013-07-05 18:44:00,91.8,54.0,29.91,SSW,202,4.0,9.6,28,0.00,,---,0.00,VWS V14.01,2013-07-05 23:44:00,
2013-07-05 18:49:00,91.6,53.9,29.91,South,180,6.3,10.1,28,0.00,,---,0.00,VWS V14.01,2013-07-05 23:49:00,
2013-07-05 18:55:00,91.4,54.7,29.91,SSW,202,3.8,9.4,29,0.00,,---,0.00,VWS V14.01,2013-07-05 23:55:00,
2013-07-05 19:00:00,91.2,54.5,29.91,South,180,4.3,9.4,29,0.00,,---,0.00,VWS V14.01,2013-07-06 00:00:00,
2013-07-05 19:05:00,91.0,54.4,29.91,East,90,5.8,8.5,29,0.00,,---,0.00,VWS V14.01,2013-07-06 00:05:00,
2013-07-05 19:10:00,90.9,54.2,29.91,SSW,202,5.8,8.7,29,0.00,,---,0.00,VWS V14.01,2013-07-06 00:10:00,
2013-07-05 19:15:00,90.5,53.9,29.91,SSW,202,5.4,7.4,29,0.00,,---,0.00,VWS V14.01,2013-07-06 00:15:00,
2013-07-05 19:21:00,90.1,54.5,29.91,South,180,3.6,6.3,30,0.00,,---,0.00,VWS V14.01,2013-07-06 00:21:00,
2013-07-05 19:22:00,90.1,53.6,29.91,SSW,202,6.0,8.1,29,0.00,,---,0.00,VWS V14.01,2013-07-06 00:22:00,
2013-07-05 19:27:00,89.8,53.3,29.94,SSW,202,8.1,8.5,29,0.00,,---,0.00,VWS V14.01,2013-07-06 00:27:00,
2013-07-05 19:28:00,89.6,54.1,29.94,South,180,6.9,8.1,30,0.00,,---,0.00,VWS V14.01,2013-07-06 00:28:00,
2013-07-05 19:33:00,89.6,54.1,29.94,SSW,202,7.8,8.5,30,0.00,,---,0.00,VWS V14.01,2013-07-06 00:33:00,
2013-07-05 19:38:00,89.1,53.6,29.94,SSE,158,5.6,7.6,30,0.00,,---,0.00,VWS V14.01,2013-07-06 00:38:00,
2013-07-05 19:43:00,88.5,53.2,29.91,SSW,202,0.0,8.1,30,0.00,,---,0.00,VWS V14.01,2013-07-06 00:43:00,
2013-07-05 19:48:00,88.2,52.8,29.91,SSE,158,7.6,7.6,30,0.00,,---,0.00,VWS V14.01,2013-07-06 00:48:00,
2013-07-05 19:51:00,88.2,52.8,29.91,SSW,202,2.2,5.8,30,0.00,,---,0.00,VWS V14.01,2013-07-06 00:51:00,
2013-07-05 19:56:00,88.0,52.7,29.91,SSW,202,3.8,5.8,30,0.00,,---,0.00,VWS V14.01,2013-07-06 00:56:00,
2013-07-05 20:01:00,87.6,52.4,29.91,South,180,2.5,7.2,30,0.00,,---,0.00,VWS V14.01,2013-07-06 01:01:00,
2013-07-05 20:06:00,87.1,51.9,29.91,SSE,158,3.4,6.5,30,0.00,,---,0.00,VWS V14.01,2013-07-06 01:06:00,